SCP
2 2 2 1 1 2 2 2 2 2 2 2 1 1 1 1 1 1 1 1 1 1 2 2 1 1 1 1 1 1 1 1 2 2 2 2 2 1 1 1 1 1 1
2 2 2 1 1 2 2 2 2 2 2 2 1 1 1 1 1 1 1 1 1 1 2 2 2 1 2 2 2 1 1 1 2 2 2 2 2 2 1 1 1 1 1
2 2 1 1 1 1 2 3 2 2 2 2 1 1 1 0 1 1 1 1 1 1 2 2 2 2 2 2 2 2 1 1 2 2 3 3 2 2 2 2 1 1 1
2 1 1 1 1 1 2 3 3 2 2 2 2 1 0 0 0 0 0 0 1 1 1 1 2 2 2 2 2 2 1 1 1 2 3 3 3 2 2 2 2 2 2
2 2 1 1 1 1 2 2 2 2 2 2 1 1 0 0 0 0 0 0 0 1 1 1 1 2 2 2 2 2 1 1 1 2 3 4 3 3 2 2 2 2 2
3 2 2 2 1 1 1 1 1 2 2 2 1 1 1 0 0 0 0 0 0 0 1 1 1 1 2 2 2 2 2 2 2 2 3 3 4 3 3 2 2 2 2
3 3 3 3 2 1 1 1 1 1 1 1 1 1 0 0 0 0 0 0 0 0 0 1 1 1 2 2 2 2 2 2 2 2 2 3 3 3 3 2 2 1 1
3 3 3 3 3 2 1 1 1 1 1 1 1 1 0 0 0 0 0 0 0 0 0 0 1 1 1 1 2 2 2 2 2 2 2 2 3 2 2 2 2 1 1
2 2 2 3 3 2 1 1 1 1 1 1 1 0 0 0 0 0 0 0 0 0 0 0 1 1 1 1 1 2 2 2 3 3 3 2 2 2 2 2 2 1 1
2 2 2 2 2 2 1 1 1 1 1 1 1 1 0 0 0 0 0 0 0 0 0 0 0 1 1 1 1 1 1 2 3 3 3 3 2 2 2 2 2 1 1
2 2 2 1 1 1 1 1 1 1 1 1 1 1 1 0 0 0 0 0 0 0 0 0 0 1 1 1 1 1 1 1 2 3 3 3 2 2 2 2 2 2 2
2 2 2 2 1 1 1 0 1 1 1 1 1 1 1 0 0 0 0 0 0 0 0 0 0 1 1 1 1 1 1 1 1 2 2 2 3 2 2 2 1 2 2
3 2 2 2 2 2 1 1 0 0 0 1 1 1 1 0 0 0 0 0 0 0 0 0 0 0 1 1 1 1 1 1 1 1 1 2 2 2 2 1 1 1 1
2 2 3 3 3 2 2 1 1 0 0 0 0 1 1 0 0 0 0 0 0 0 0 0 0 0 0 1 1 1 0 0 0 1 1 1 1 1 1 1 1 1 1
2 2 2 2 3 3 3 2 2 1 1 0 0 0 0 0 0 0 0 0 0 0 0 0 0 0 0 0 0 0 0 0 0 0 0 0 0 0 1 1 1 1 1
2 2 1 1 3 4 4 3 3 2 1 1 0 0 0 0 0 0 0 0 0 0 0 0 0 0 0 0 0 0 0 0 0 0 0 0 0 0 0 0 0 0 0
1 1 1 1 1 3 4 4 4 3 2 1 0 0 0 0 0 0 0 0 0 0 0 0 0 0 0 0 0 0 0 0 0 0 0 0 0 0 0 0 0 0 0
0 0 0 1 1 2 3 4 4 3 2 1 1 0 0 0 0 0 0 0 0 0 0 0 0 0 0 0 0 0 0 0 0 0 0 0 0 0 0 0 0 0 0
0 0 0 1 1 2 3 3 4 4 3 2 1 1 0 0 0 0 0 0 0 0 0 0 0 0 0 0 0 0 0 0 0 0 0 0 0 0 0 0 0 0 0
0 0 0 0 1 2 2 3 3 4 3 3 2 1 0 0 0 0 0 0 0 0 0 0 0 0 0 0 0 0 0 0 0 0 0 0 0 0 0 0 0 0 0
0 0 0 0 0 1 1 2 2 3 4 3 2 1 1 0 0 0 0 0 0 0 0 0 0 0 0 0 0 0 0 0 0 0 0 0 0 0 0 0 0 0 0
0 0 0 0 0 0 0 1 1 2 3 3 3 2 1 0 0 0 0 0 0 0 0 0 0 0 0 0 0 0 0 0 0 0 0 0 0 0 0 0 0 0 0
0 0 0 0 0 0 0 0 0 1 2 3 3 2 1 0 0 0 0 0 0 0 0 0 0 0 0 0 0 0 0 0 0 0 0 0 0 0 0 0 0 0 0
0 0 0 0 0 0 0 0 0 0 1 2 2 2 1 0 0 0 0 0 0 0 0 0 0 0 0 0 0 0 0 0 0 0 0 0 0 0 0 0 0 0 0
0 0 0 0 0 0 0 0 0 0 0 1 1 1 1 0 0 0 0 0 0 0 0 0 0 0 0 0 0 0 0 0 0 0 0 0 0 0 0 0 0 0 0
0 0 0 0 0 0 0 0 0 0 0 1 1 1 0 0 0 0 0 0 0 0 0 0 0 0 0 0 0 0 0 0 0 0 0 0 0 0 0 0 0 0 0
Wind_Speed
3 3 2 2 2 1 2 1 1 1 1 1 1 2 3 3 3 2 2 6 6 6 7 8 8 8 7 7 7 7 7 7 7 7 7 6 6 6 6 6 7 7 6
4 3 3 2 1 1 1 2 2 2 1 1 1 2 2 3 3 3 2 3 6 6 6 6 7 7 7 7 7 7 7 7 7 7 7 7 7 6 6 6 7 7 7
4 4 3 2 2 1 1 1 1 1 1 1 1 1 2 2 3 3 2 2 2 5 6 6 6 7 8 8 8 8 7 7 7 7 7 7 7 6 6 5 6 7 7
5 4 3 2 2 2 1 2 1 1 1 1 1 1 1 2 2 3 2 2 2 2 3 5 6 6 7 8 8 8 8 7 7 7 7 7 7 7 7 6 5 5 6
5 4 3 2 3 2 1 1 1 1 1 1 1 1 1 2 2 3 2 3 2 2 2 4 6 6 7 8 8 8 8 8 7 7 7 7 7 7 7 7 6 6 5
5 4 3 3 3 2 1 1 1 1 1 1 1 0 1 1 1 2 3 3 3 3 3 3 3 4 7 8 8 8 8 8 8 8 8 8 7 7 7 7 7 6 6
4 4 3 3 3 2 2 2 1 1 1 1 2 1 2 1 2 2 2 2 3 3 3 3 3 2 3 7 7 8 8 8 8 8 8 8 8 7 8 7 7 7 7
4 4 3 3 3 2 2 1 2 1 1 1 2 2 1 3 3 2 2 2 3 2 3 4 3 3 3 2 4 7 7 8 8 9 9 9 9 9 8 8 8 8 8
4 4 4 3 3 3 2 2 2 3 2 1 2 3 3 3 2 3 2 2 2 2 3 3 4 4 4 3 3 5 7 7 8 8 8 8 9 9 9 9 9 8 9
4 4 4 4 3 3 3 3 3 2 3 2 1 1 2 3 2 2 2 2 2 3 3 3 3 3 4 3 4 6 7 7 7 8 8 8 9 10 10 10 10 10 10
3 3 4 3 3 3 3 3 2 2 2 3 2 1 1 1 2 2 2 2 2 2 3 3 3 3 4 4 4 6 9 8 8 8 8 8 8 9 10 10 11 11 11
1 2 3 3 3 3 3 3 3 3 3 2 2 2 2 2 2 2 3 2 2 3 2 2 3 3 4 4 6 8 9 9 9 8 8 8 9 9 9 10 11 11 11
2 3 3 3 3 3 3 3 3 3 3 3 3 3 3 3 2 3 2 2 2 2 2 2 2 3 4 3 4 8 9 9 9 9 9 9 9 9 9 9 10 10 11
3 3 3 3 4 4 3 3 3 3 3 3 3 3 2 2 2 2 3 3 1 2 2 3 2 2 3 3 5 7 5 9 10 10 9 9 9 9 9 9 8 8 9
2 3 3 3 3 3 3 3 2 3 3 3 4 3 3 2 2 2 2 3 4 2 3 3 2 2 2 2 4 4 4 7 9 9 9 9 9 9 9 9 8 8 8
2 2 2 2 2 3 3 2 2 3 3 3 3 3 3 2 1 1 1 1 3 3 3 3 2 2 2 2 3 2 3 6 7 8 9 9 10 9 9 9 9 9 10
2 2 2 2 2 2 2 2 3 3 3 3 3 3 3 2 1 1 1 1 1 2 2 3 1 1 1 1 2 2 2 2 3 6 7 9 10 10 10 10 10 10 11
2 2 2 2 2 3 3 3 3 3 4 4 4 3 4 2 2 1 1 1 1 2 2 2 2 1 2 2 1 2 2 2 3 6 8 8 9 9 9 10 10 10 11
3 2 2 3 3 3 3 3 4 4 4 4 4 4 4 3 2 2 2 2 2 2 2 2 2 1 2 1 1 2 2 2 3 4 6 7 8 8 9 10 10 10 10
3 3 3 3 3 3 3 3 3 4 4 4 4 4 4 5 4 4 3 3 2 1 1 1 1 1 2 1 0 1 2 2 3 3 3 4 6 7 8 9 9 9 9
3 3 2 2 3 3 3 4 3 4 4 4 3 4 4 5 6 4 3 3 3 2 1 1 1 1 1 1 1 1 2 2 3 2 2 3 2 3 4 6 8 9 9
2 2 2 3 3 3 3 5 4 4 4 4 4 3 4 4 5 4 4 5 5 4 3 3 2 2 3 3 2 1 1 1 3 2 1 3 2 3 3 3 6 7 8
2 2 3 3 3 4 5 5 6 4 4 4 4 4 3 3 4 3 3 2 3 5 7 5 4 5 4 4 3 2 2 3 4 3 1 3 2 3 3 4 6 7 8
2 3 3 3 3 4 6 6 5 3 3 4 4 5 4 4 4 4 3 2 3 4 5 5 5 6 5 5 4 4 3 3 3 3 2 2 2 3 3 3 6 8 8
2 3 3 3 3 4 6 6 4 2 2 3 4 4 5 5 6 6 4 3 3 4 5 6 6 6 7 7 5 2 1 0 2 3 2 2 2 2 2 3 5 7 7
3 3 3 3 4 4 6 6 5 2 2 2 2 3 5 6 6 6 5 4 4 5 3 3 3 4 4 5 6 5 4 3 2 3 3 2 2 1 3 3 3 3 3
Wind_Direction
149 147 147 146 162 164 170 184 184 193 183 172 166 159 162 164 163 171 171 164 169 178 180 181 182 184 186 185 185 185 183 182 186 187 187 186 184 190 193 194 194 193 199
153 151 145 148 168 178 181 178 176 175 179 174 172 163 164 162 164 172 176 177 175 180 187 188 191 189 192 194 192 190 190 191 192 195 193 190 186 188 190 201 204 201 205
152 149 148 161 181 174 146 131 129 130 146 159 190 173 164 164 158 172 179 182 184 186 187 192 195 198 201 202 200 198 195 196 197 196 194 192 192 191 192 193 202 206 209
151 146 154 163 163 142 134 135 126 116 119 147 202 203 168 168 173 179 180 183 188 199 197 196 195 198 203 204 204 202 200 200 198 196 194 195 196 197 196 195 198 203 208
153 151 162 164 151 138 145 163 135 132 142 179 215 182 179 191 200 192 188 191 197 201 204 206 201 204 206 207 207 208 208 207 204 199 199 197 198 197 196 198 200 202 206
155 150 157 156 149 142 148 146 142 148 158 177 198 105 230 220 214 204 207 201 202 205 204 210 210 217 213 210 210 211 211 209 205 203 204 203 199 198 198 199 202 203 205
146 147 150 148 154 160 170 171 162 154 171 118 83 20 340 297 248 223 211 203 210 210 201 210 217 222 223 216 213 211 210 211 210 209 209 207 206 208 210 207 210 212 211
151 152 148 154 162 154 146 159 145 139 158 133 132 115 358 328 300 256 236 209 215 215 211 213 209 208 217 214 215 215 214 213 214 215 215 213 212 211 212 214 219 221 219
156 156 163 164 168 164 176 189 172 158 167 210 156 150 160 221 273 293 254 227 212 212 225 218 207 203 204 202 210 222 219 217 218 219 219 217 216 216 216 221 223 223 223
167 167 172 178 177 175 179 192 179 172 161 188 225 180 173 172 176 276 303 274 237 223 223 225 219 217 208 204 210 214 214 212 219 221 220 221 222 223 224 228 230 228 230
184 182 177 180 186 188 189 189 186 184 178 180 184 179 171 189 171 177 252 287 292 253 228 224 219 221 211 207 212 218 213 213 219 224 227 227 227 228 229 232 235 235 234
202 197 184 187 191 194 197 196 194 195 197 190 184 180 177 185 197 182 215 240 259 270 254 237 223 219 214 209 217 216 214 216 217 223 228 228 226 228 232 235 239 238 238
200 208 197 198 200 205 206 198 193 206 201 196 201 208 207 210 196 184 191 227 250 277 279 260 237 223 219 213 225 222 220 218 219 222 226 227 227 228 232 237 241 242 239
204 205 201 205 208 203 202 196 201 210 203 208 217 217 218 225 202 194 187 180 226 289 283 268 270 233 226 218 226 226 229 223 223 223 224 225 224 225 231 233 237 243 239
204 201 201 205 207 198 196 190 207 220 212 212 220 221 223 232 221 212 193 176 171 206 258 259 258 252 236 231 232 224 229 229 230 229 226 224 225 227 231 231 234 234 232
207 206 209 204 207 202 197 194 211 221 214 223 221 224 229 231 230 212 186 183 174 177 226 250 243 253 254 252 247 233 235 235 241 239 229 227 228 229 231 233 234 231 231
189 190 194 195 204 210 201 197 220 216 215 227 226 217 229 214 201 207 171 166 166 163 216 271 260 259 253 262 277 265 252 245 255 249 236 233 230 232 234 235 237 237 235
191 193 189 196 211 223 213 204 222 226 218 221 224 216 226 213 203 212 187 195 207 195 190 241 268 271 261 250 236 252 266 258 253 251 240 240 238 238 239 239 240 240 239
198 204 200 208 221 223 217 215 219 226 221 217 213 209 215 195 206 215 204 205 215 215 185 192 247 262 278 282 299 299 294 292 270 257 240 241 242 246 245 244 244 243 242
196 209 218 219 222 225 224 219 219 222 222 221 217 211 207 196 200 204 206 211 198 185 176 184 242 277 278 285 183 281 305 297 280 275 260 252 246 250 253 251 245 242 243
210 210 218 232 234 229 225 218 216 217 217 222 225 216 213 211 206 202 194 196 184 181 179 188 245 274 279 292 251 238 263 283 281 268 280 271 254 251 256 258 251 245 245
218 214 224 230 240 246 237 229 217 211 212 212 220 225 222 214 210 211 207 197 186 186 196 200 220 229 245 237 232 225 231 304 293 279 255 276 237 247 251 245 253 250 246
231 232 234 224 231 239 232 231 223 207 212 218 215 213 222 215 203 204 223 235 231 224 208 194 208 224 224 220 205 230 223 222 239 249 201 274 272 261 258 259 261 252 249
235 232 234 228 228 242 233 227 225 208 215 225 215 207 207 213 212 200 205 231 249 248 229 212 210 225 226 216 203 210 219 242 265 261 184 238 265 261 269 260 260 252 250
244 236 228 223 226 248 238 228 209 193 214 231 227 217 205 210 220 205 193 220 257 270 258 234 231 237 240 239 220 189 212 219 279 275 213 203 249 265 274 265 263 259 257
238 242 239 232 226 241 241 221 194 182 205 232 247 236 218 214 219 207 193 202 234 254 258 275 273 274 264 257 233 203 199 201 231 261 239 200 235 241 295 279 267 262 260